Weather Roundup
Issued by NWS Chicago, IL

Home | Current Version | Previous Version | Graphics & Text | Print | Product List | Glossary On
Versions: 1 2 3 4 5 6 7 8 9 10 11 12 13 14 15 16 17 18 19 20 21 22 23 24 25 26 27 28 29 30 31 32 33 34 35 36 37 38 39 40 41 42 43 44 45 46 47 48 49 50
000
NZUS59 KLOT 232109
HRRLOT

CHICAGO AREA WEATHER ROUNDUP
NATIONAL WEATHER SERVICE CHICAGO/ROMEOVILLE IL
400 PM CDT FRI JUN 23 2017

NOTE: "FAIR" INDICATES FEW OR NO CLOUDS BELOW 12,000 FEET WITH NO
SIGNIFICANT WEATHER AND/OR OBSTRUCTIONS TO VISIBILITY.

* THESE STATIONS ARE NOT UNDER NWS QUALITY CONTROL. THEY ALSO MAY NOT
  REPORT WEATHER SUCH AS PRECIPITATION OR FOG.

ILZ005-006-012>014-019>023-232200-
NORTHEAST ILLINOIS

CITY           SKY/WX    TMP DP  RH WIND       PRES   REMARKS
OHARE          PTSUNNY   82  46  28 NW18      29.71R HX  80
MIDWAY         PTSUNNY   82  47  29 W9        29.71S HX  80
AURORA         MOSUNNY   79  55  43 W17       29.74R
LANSING*       MOSUNNY   79  53  40 E8        29.72S
JOLIET*        MOSUNNY   82  50  32 W8        29.73S HX  81
WAUKEGAN       SUNNY     80  47  31 VRB6G16   29.70R
DUPAGE AIRPORT SUNNY     80  51  36 NW16      29.73R HX  80
WHEELING       SUNNY     81  48  31 NW17G23   29.72R HX  80
MORRIS*        SUNNY     81  53  37 NW13G20   29.73S HX  81
LEWIS AIRPORT* MOSUNNY   82  48  30 NW12G20   29.73S HX  80
NORTHERLY ISL    N/A     73  61  65 CALM        N/A
$$

WIZ051-052-058>065-066-070>072-232200-
SOUTHEAST WISCONSIN

CITY           SKY/WX    TMP DP  RH WIND       PRES   REMARKS
MILWAUKEE      PTSUNNY   82  46  28 W14G22    29.68S HX  80
KENOSHA*       SUNNY     80  52  37 W12       29.70S HX  80
RACINE*        SUNNY     81  47  30 NW15      29.70S HX  80
WAUKESHA       MOSUNNY   75  48  38 W13G22    29.70S
WEST BEND      PTSUNNY   77  50  38 W20G25    29.67S
$$

INZ001>003-010>013-019-020-232200-
NORTHWEST INDIANA

CITY           SKY/WX    TMP DP  RH WIND       PRES   REMARKS
GARY*          PTSUNNY   79  52  38 CALM      29.73R
MICHIGAN CITY* NOT AVBL
RENSSELAER*    NOT AVBL
VALPARAISO     PTSUNNY   79  55  43 NE7       29.74S
$$

LMZ740>746-232200-
SOUTHERN LAKE MICHIGAN

STATION/POSITION TIME  SKY/WX   TEMP WIND        PRES    VSBY
                                AIR  DIR/SP/G
                 (UTC)          (F)  (DEG/KT/KT) (MB)    (MI)
HARRISON CRIB    2040            72  100/  5/  7   N/A
BURNHAM HARBOR   2100            71                N/A
CALUMET HARBOR   2048            73   80/  5/  7 1006.1R
BURNS HARBOR     2040            73   70/  5/  6 1007.1S
MICHIGAN CITY    2040            68  220/  4/  5   N/A
$$

ABBREVIATIONS USED IN REMARKS
   TC - TEMPERATURE IN CELSIUS
  WCI - WIND CHILL INDEX
   HX - HEAT INDEX
  VSB - VISIBILITY
$$




USA.gov is the U.S. government's official web portal to all federal, state and local government web resources and services.